Location: Borderline Observatory
(42.7345°N, 72.8696°W)
Time: 01:39:26
(UTC-05:00)

Daily predictions for brighter satellites

Satellite Brightness Start Highest point End
(mag) Time Altitude Azimuth Time Altitude Azimuth Time Altitude Azimuth
ATLAS 2AS CENTAUR R/B 4.4 02:45:32 29° N 02:45:32 29° N 02:50:01 10° NNE
CENTAUR R/B 3.7 03:08:19 47° SE 03:08:19 47° SE 03:14:04 10° SE
ADEOS II 4.4 03:07:48 10° NNE 03:08:55 17° NNE 03:08:55 17° NNE
Cosmos 1697 Rocket 3.4 03:47:04 45° ESE 03:47:31 47° ESE 03:52:52 10° NE
SJ 16-02 3.8 03:51:15 12° SE 03:54:00 20° E 03:57:13 10° NE
Cosmos 2297 Rocket 4.1 04:09:39 16° S 04:09:39 16° S 04:10:46 10° S
MOS 1-B 4.4 04:00:35 10° N 04:05:32 64° NNW 04:05:32 64° NNW
Cosmos 2285 Rocket 4.2 04:08:03 57° S 04:08:03 57° S 04:13:09 10° S
Lacrosse 5 rocket 2.7 04:10:32 34° ESE 04:10:32 34° ESE 04:13:01 10° ESE
Cosmos 2150 Rocket 4.0 04:10:42 71° NNE 04:10:42 71° NNE 04:15:17 10° NNE
CZ-4B R/B 3.4 04:10:29 10° NNE 04:15:55 67° ESE 04:19:30 22° S
BREEZE-M DEB (TANK) 4.0 04:18:42 24° ESE 04:18:42 24° ESE 04:19:41 10° ESE
Cosmos 1869 Rocket 3.8 04:14:35 10° N 04:19:01 67° E 04:23:25 10° SSE
IDEFIX/ARIANE 42P 4.3 04:17:35 10° NNE 04:22:14 31° E 04:26:49 10° SSE
Cosmos 1934 Rocket 4.3 04:17:05 10° S 04:23:22 70° E 04:29:43 10° NNE
Cosmos 1707 Rocket 4.2 04:22:32 20° SSE 04:25:29 56° E 04:29:53 10° NNE
CZ-4B DEB 4.0 04:25:05 10° NNE 04:30:35 80° WNW 04:32:51 37° SSW
Cosmos 2123 Rocket 4.2 04:25:00 10° N 04:31:14 71° E 04:37:28 10° SSE
Okean O Rocket 1.9 04:28:40 10° N 04:32:14 52° NNW 04:32:14 52° NNW
Cosmos 2263 Rocket 4.4 04:30:04 10° N 04:34:32 23° NE 04:38:58 10° ESE
SJ-6F 4.3 04:32:46 10° NNE 04:36:53 90° SSE 04:37:13 75° SSW
Cosmos 158 Rocket 4.0 04:32:15 10° NNW 04:37:18 78° ENE 04:42:27 10° SSE
Cosmos 2278 3.9 04:38:23 46° WNW 04:38:36 46° WNW 04:44:06 10° NNE
Cosmos 1821 Rocket 3.9 04:40:17 22° SSW 04:44:17 61° W 04:50:28 10° N
Cosmos 1937 Rocket 4.2 04:48:09 34° NW 04:48:09 34° NW 04:52:29 10° N
PAYLOAD B 4.2 04:42:57 10° N 04:48:20 56° WNW 04:50:42 32° SW
Cosmos 2322 Rocket 4.2 04:44:37 10° SSE 04:49:21 28° ESE 04:54:08 10° NE
SKYMED 2 4.1 04:45:39 10° SSE 04:49:53 58° ENE 04:54:10 10° N
ADEOS II 4.1 04:48:59 10° NNW 04:49:53 13° NNW 04:49:53 13° NNW
CENTAUR R/B 3.8 04:55:38 28° WSW 04:55:49 28° WSW 05:02:39 10° SSW
USA 116 4.0 04:51:27 10° S 04:55:55 77° WSW 05:00:58 10° NNW
Cosmos 1535 Rocket 4.4 04:50:08 10° SSW 04:56:10 58° W 05:02:13 10° N
Cosmos 1125 Rocket 3.6 04:51:29 10° SSW 04:56:39 77° ESE 05:01:52 10° NNE
Cosmos 372 Rocket 4.0 04:51:44 10° SSW 04:56:48 78° ESE 05:01:57 10° NNE
Cosmos 1862 3.3 04:54:41 10° NNW 04:58:34 53° W 05:02:27 10° S
Cosmos 1933 3.2 04:56:23 10° S 05:00:27 88° W 05:04:32 10° N
Cosmos 1980 Rocket 2.1 04:55:52 14° SSW 05:00:44 78° WNW 05:06:26 10° NNE
Meteor 2-10 Rocket 3.5 04:58:36 25° SW 05:01:15 49° WNW 05:06:08 10° N
COSMOS 2455 3.0 04:55:55 10° NNW 05:02:00 76° ENE 05:08:01 10° SE
Cosmos 1656 4.4 05:01:27 30° WNW 05:02:00 30° NW 05:06:48 10° N
IRS-1C Rocket 4.1 04:59:35 10° N 05:04:46 58° WNW 05:09:55 10° SSW
CZ-2C R/B 3.7 05:02:45 10° S 05:07:25 66° WSW 05:12:02 10° NNW
CZ-3 R/B 3.5 04:59:18 20° WSW 05:09:28 35° SSW 05:15:39 10° SE
Landsat 4 4.2 05:07:45 10° SSE 05:11:26 62° ENE 05:15:07 10° N
ATLAS 5 CENTAUR R/B 2.6 05:12:19 10° SSW 05:16:38 49° ESE 05:21:21 10° NE
Meteor 1-31 Rocket 4.0 05:14:40 10° NNW 05:17:16 24° NW 05:17:16 24° NW
BREEZE M DEB (TANK) 2.9 05:18:00 20° NNW 05:18:04 20° N 05:19:50 10° NE
Cosmos 1441 Rocket 3.3 05:19:11 10° S 05:23:10 85° E 05:27:11 10° N
Hubble Space Telescope 3.3 05:24:20 10° S 05:25:21 11° S 05:26:22 10° SSE
Okean-O 2.5 05:23:20 10° N 05:27:47 77° WNW 05:32:12 10° SSW
Geosat 4.1 05:23:06 10° SSE 05:28:07 84° ENE 05:33:11 10° NNW
Feng Yun 1-1 Rocket 4.2 05:23:08 10° N 05:28:40 75° WNW 05:34:20 10° SSW
Meteor 2-17 Rocket 4.5 05:22:59 10° SSW 05:28:54 56° WNW 05:34:53 10° N
Cosmos 1605 Rocket 4.0 05:23:45 10° SSW 05:29:43 54° WNW 05:35:42 10° N
Cosmos 1733 Rocket 2.9 05:25:49 10° NNW 05:30:11 72° W 05:34:34 10° S
Cosmos 1862 Rocket 3.5 05:27:03 10° S 05:31:23 84° W 05:35:48 10° N
Cosmos 1697 Rocket 3.6 05:28:51 19° W 05:31:41 28° NW 05:36:29 10° N
EXPRESS MD2 4.1 05:28:50 18° WNW 05:31:58 90° SW 05:40:23 10° ESE
SJ 16-02 1.8 05:28:22 11° SW 05:32:18 38° WNW 05:36:28 10° N
Meteor 1-26 Rocket 4.3 05:28:05 10° S 05:33:59 84° W 05:39:51 10° N
SL-16 R/B 2.6 05:28:23 10° SSW 05:33:59 68° ESE 05:39:38 10° NNE
Cosmos 2100 Rocket 4.3 05:28:02 10° S 05:34:08 70° E 05:40:15 10° NNE
Cosmos 1269 Rocket 4.0 05:31:54 10° NNW 05:37:07 61° WSW 05:42:17 10° S
COSMO-SKYMED 1 2.9 05:33:56 10° S 05:38:01 41° W 05:42:09 10° NNW
MTI 4.0 05:36:52 10° S 05:39:55 45° W 05:43:01 10° NNW
Cosmos 494 Rocket 4.2 05:37:12 10° NNW 05:42:20 73° ENE 05:47:26 10° SSE
COSMOS 2441 4.3 05:39:05 10° N 05:44:00 81° WNW 05:48:54 10° SSW
CZ-2C R/B 2.5 05:42:28 10° N 05:47:29 62° WNW 05:52:33 10° SSW
Lacrosse 5 rocket 2.8 05:46:15 14° W 05:47:59 18° SW 05:50:50 10° S
NOAA 6 4.4 05:44:56 10° N 05:49:46 41° WNW 05:54:34 10° SW
Cosmos 405 3.8 05:47:22 10° NNW 05:50:31 29° W 05:53:39 10° SSW
Cosmos 1437 Rocket 3.6 05:47:25 10° N 05:51:27 57° ENE 05:55:23 10° SSE
BREEZE-M DEB (TANK) 3.2 05:50:13 11° WNW 05:53:23 86° NNE 06:04:33 10° ESE
Okean 1-7 4.4 05:49:34 10° SSE 05:53:38 43° E 05:57:46 10° NNE
Meteor 1-14 Rocket 4.3 05:48:42 10° NNW 05:54:39 68° W 06:00:31 10° S
Cosmos 2061 Rocket 4.1 05:52:27 10° S 05:58:39 85° E 06:04:52 10° N
Meteor 1-20 Rocket 4.3 05:52:52 10° NNW 05:58:43 75° W 06:04:27 10° S
OPS 8737 4.5 05:56:37 10° SW 06:00:25 67° NW 06:03:46 10° NNE
Cosmos 1606 2.6 05:56:38 10° SSW 06:00:27 77° W 06:04:16 10° N
IDEFIX/ARIANE 42P 3.2 05:57:08 10° N 06:01:48 34° WNW 06:06:26 10° SW
Cosmos 1802 Rocket 4.1 05:57:01 10° S 06:03:25 89° W 06:09:48 10° N
Cosmos 2173 Rocket 4.0 05:58:11 10° SSW 06:04:23 75° W 06:10:32 10° N
Cosmos 1459 Rocket 4.0 05:58:20 10° SSW 06:04:33 75° W 06:10:55 10° N
Cosmos 2016 Rocket 4.3 05:58:20 10° S 06:04:37 79° E 06:11:00 10° N
SMAP 3.5 06:06:13 10° NNE 06:10:53 70° ESE 06:15:30 10° S
